FW8796 Weather Reports


Display with metric or nautical units.
time (UTC)temp
F
wind
direction
speed
MPH
gust
MPH
rain 1hr
in
rain 24hr
in
rain mn
in
humidity
%
barometer
mb
20260506170104 40 336 3.0 7.0 0.00 0.00 0.00 57 1015.6
20260506165605 40 310 3.0 9.0 0.00 0.00 0.00 56 1015.6
20260506165104 40 325 4.0 8.0 0.00 0.00 0.00 56 1015.6
20260506164604 41 311 4.0 6.0 0.00 0.00 0.00 55 1015.7
20260506163604 41 310 2.0 8.0 0.00 0.00 0.00 55 1015.7
20260506162604 41 324 5.0 7.0 0.00 0.00 0.00 56 1015.6
20260506161605 42 330 1.0 8.0 0.00 0.00 0.00 56 1015.5
20260506161104 41 290 1.0 9.0 0.00 0.00 0.00 57 1015.6
20260506160604 41 298 5.0 12.0 0.00 0.00 0.00 55 1015.6
20260506160105 42 309 3.0 9.0 0.00 0.00 0.00 55 1015.7
20260506155604 42 300 2.0 8.0 0.00 0.00 0.00 55 1015.7
20260506155104 42 321 4.0 8.0 0.00 0.00 0.00 54 1015.7
20260506154604 42 310 2.0 6.0 0.00 0.00 0.00 54 1015.7
20260506154104 41 258 3.0 7.0 0.00 0.00 0.00 59 1015.7
20260506153604 40 316 6.0 12.0 0.00 0.00 0.00 57 1015.8
20260506153104 40 314 6.0 10.0 0.00 0.00 0.00 59 1015.8
20260506152604 40 296 3.0 5.0 0.00 0.00 0.00 60 1015.8
20260506151605 41 286 5.0 9.0 0.00 0.00 0.00 56 1015.8
20260506151104 42 292 4.0 9.0 0.00 0.00 0.00 57 1015.8
20260506150605 43 290 3.0 9.0 0.00 0.00 0.00 57 1015.8
20260506150105 42 220 3.0 12.0 0.00 0.00 0.00 57 1015.7
20260506145604 42 234 7.0 12.0 0.00 0.00 0.00 57 1015.8
20260506145104 42 270 2.0 7.0 0.00 0.00 0.00 58 1015.8
20260506144604 41 339 3.0 12.0 0.00 0.00 0.00 60 1015.8
20260506144104 40 228 6.0 10.0 0.00 0.00 0.00 60 1015.9
20260506143105 40 245 5.0 10.0 0.00 0.00 0.00 60 1015.9
20260506142605 40 326 3.0 8.0 0.00 0.00 0.00 59 1015.9
20260506142104 41 292 3.0 8.0 0.00 0.00 0.00 58 1016.0
20260506141605 41 287 7.0 12.0 0.00 0.00 0.00 56 1016.0
20260506141105 41 299 3.0 8.0 0.00 0.00 0.00 54 1015.9
20260506140605 42 305 4.0 10.0 0.00 0.00 0.00 52 1015.9
20260506140104 42 319 2.0 5.0 0.00 0.00 0.00 51 1015.9
20260506135604 42 288 5.0 10.0 0.00 0.00 0.00 51 1016.0
20260506135105 42 211 3.0 10.0 0.00 0.00 0.00 50 1015.8
20260506134604 41 298 1.0 8.0 0.00 0.00 0.00 50 1015.8
20260506134104 41 253 5.0 9.0 0.00 0.00 0.00 50 1015.8
20260506133604 41 294 6.0 12.0 0.00 0.00 0.00 50 1015.8
20260506132604 41 321 0.0 7.0 0.00 0.00 0.00 51 1015.8
20260506132104 40 244 3.0 7.0 0.00 0.00 0.00 51 1015.8
20260506131605 41 261 7.0 12.0 0.00 0.00 0.00 54 1015.9
20260506130604 43 304 2.0 9.0 0.00 0.00 0.00 47 1015.9
20260506130105 43 307 3.0 8.0 0.00 0.00 0.00 49 1015.9
20260506125605 42 207 2.0 7.0 0.00 0.00 0.00 50 1015.9
20260506125104 41 275 2.0 8.0 0.00 0.00 0.00 50 1016.1
20260506124604 42 313 5.0 10.0 0.00 0.00 0.00 51 1016.1
20260506124104 43 297 3.0 8.0 0.00 0.00 0.00 51 1016.1
20260506123604 43 200 2.0 9.0 0.00 0.00 0.00 52 1016.0
20260506123105 42 218 5.0 16.0 0.00 0.00 0.00 52 1015.9
20260506122604 42 188 3.0 7.0 0.00 0.00 0.00 52 1015.9
20260506121604 41 210 7.0 14.0 0.00 0.00 0.00 53 1016.0
20260506121104 40 230 6.0 10.0 0.00 0.00 0.00 57 1016.0
20260506120604 40 200 5.0 9.0 0.00 0.00 0.00 55 1016.0
20260506120104 40 317 2.0 8.0 0.00 0.00 0.00 55 1016.0
20260506115605 40 311 0.0 12.0 0.00 0.00 0.00 56 1016.0
20260506115104 40 304 3.0 10.0 0.00 0.00 0.00 56 1016.0
20260506114604 40 333 1.0 7.0 0.00 0.00 0.00 56 1016.0
20260506114105 40 341 6.0 10.0 0.00 0.00 0.00 56 1015.9
20260506113605 39 320 3.0 7.0 0.00 0.00 0.00 58 1016.0
20260506113104 39 330 6.0 15.0 0.00 0.00 0.00 56 1016.0
20260506112605 40 340 6.0 15.0 0.00 0.00 0.00 56 1016.0
20260506112105 40 13 5.0 10.0 0.00 0.00 0.00 57 1016.0
20260506111604 40 259 3.0 10.0 0.00 0.00 0.00 56 1016.0
20260506111104 41 328 5.0 12.0 0.00 0.00 0.00 57 1016.1
20260506110604 39 319 3.0 7.0 0.00 0.00 0.00 58 1016.1
20260506110105 39 320 3.0 9.0 0.00 0.00 0.00 58 1016.2
20260506105605 40 354 7.0 12.0 0.00 0.00 0.00 56 1016.1
20260506105104 40 8 4.0 7.0 0.00 0.00 0.00 57 1016.1
20260506104605 40 311 6.0 9.0 0.00 0.00 0.00 57 1016.2
20260506104105 39 18 2.0 10.0 0.00 0.00 0.00 59 1016.1
20260506103605 39 337 9.0 14.0 0.00 0.00 0.00 57 1016.1
20260506102604 39 352 3.0 14.0 0.00 0.00 0.00 57 1016.2
20260506102104 40 338 5.0 12.0 0.00 0.00 0.00 58 1016.2
20260506101604 39 52 3.0 9.0 0.00 0.00 0.00 59 1016.2
20260506101105 38 309 7.0 15.0 0.00 0.00 0.00 57 1016.3
20260506100604 38 267 5.0 12.0 0.00 0.00 0.00 58 1016.3
20260506100104 39 317 9.0 14.0 0.00 0.00 0.00 57 1016.3
20260506095604 38 304 3.0 9.0 0.00 0.00 0.00 57 1016.2
20260506095104 38 352 5.0 12.0 0.00 0.00 0.00 58 1016.2
20260506094604 38 321 7.0 15.0 0.00 0.00 0.00 57 1016.2
20260506094104 38 313 9.0 12.0 0.00 0.00 0.00 57 1016.2
20260506093604 38 319 2.0 12.0 0.00 0.00 0.00 57 1016.2
20260506093104 38 317 6.0 10.0 0.00 0.00 0.00 56 1016.2
20260506092105 38 313 6.0 12.0 0.00 0.00 0.00 57 1016.2
20260506091604 38 312 1.0 9.0 0.00 0.00 0.00 58 1016.3
20260506091104 38 317 7.0 13.0 0.00 0.00 0.00 59 1016.3
20260506090605 37 318 3.0 15.0 0.00 0.00 0.00 59 1016.4
20260506090105 37 320 6.0 14.0 0.00 0.00 0.00 59 1016.4
20260506085104 37 318 7.0 14.0 0.00 0.00 0.00 58 1016.3
20260506084604 37 322 9.0 13.0 0.00 0.00 0.00 57 1016.3
20260506084104 38 327 8.0 12.0 0.00 0.00 0.00 58 1016.2
20260506083604 37 323 3.0 10.0 0.00 0.00 0.00 58 1016.1
20260506082104 37 225 7.0 13.0 0.00 0.00 0.00 60 1016.1
20260506081604 37 253 6.0 13.0 0.00 0.00 0.00 59 1016.1
20260506081104 37 236 7.0 13.0 0.00 0.00 0.00 59 1016.0
20260506080605 37 248 4.0 10.0 0.00 0.00 0.00 61 1016.1
20260506080104 37 232 3.0 9.0 0.00 0.00 0.00 60 1016.1
20260506072604 36 336 0.0 2.0 0.00 0.00 0.00 63 1016.0
20260506072104 35 335 2.0 6.0 0.00 0.00 0.00 62 1016.1
20260506071605 36 313 5.0 8.0 0.00 0.00 0.00 63 1016.0
20260506070604 35 167 1.0 3.0 0.00 0.00 0.00 68 1016.0
20260506062104 32 276 0.0 3.0 0.00 0.00 0.00 76 1016.0
20260506061604 32 276 0.0 0.0 0.00 0.00 0.00 77 1016.1
20260506061105 32 276 0.0 0.0 0.00 0.00 0.00 78 1016.1
20260506060604 31 276 0.0 0.0 0.00 0.00 0.00 80 1016.1
20260506060104 31 276 0.0 0.0 0.00 0.00 0.00 83 1016.1
20260506051104 24 276 0.0 0.0 0.00 0.00 0.00 90 1016.1
20260506050104 23 276 0.0 0.0 0.00 0.00 0.00 90 1016.1
20260506044605 23 276 0.0 0.0 0.00 0.00 0.00 90 1016.1
20260506044105 23 276 0.0 0.0 0.00 0.00 0.00 90 1016.1
20260506043604 22 276 0.0 0.0 0.00 0.00 0.00 90 1016.0
20260506043104 22 276 0.0 0.0 0.00 0.00 0.00 90 1016.1
20260506042604 22 276 0.0 0.0 0.00 0.00 0.00 91 1016.1
20260506042105 22 276 0.0 0.0 0.00 0.00 0.00 90 1016.1
20260506041604 22 276 0.0 0.0 0.00 0.00 0.00 91 1016.0
20260506040105 22 276 0.0 3.0 0.00 0.00 0.00 91 1015.9
20260506035604 22 276 0.0 0.0 0.00 0.00 0.00 90 1015.8
20260506035104 22 276 0.0 0.0 0.00 0.00 0.00 90 1015.8
20260506034605 23 276 0.0 0.0 0.00 0.00 0.00 90 1015.8
20260506033604 22 276 0.0 0.0 0.00 0.00 0.00 91 1015.8
20260506033105 22 276 0.0 0.0 0.00 0.00 0.00 91 1015.7
20260506032604 22 276 0.0 0.0 0.00 0.00 0.00 91 1015.7
20260506032104 22 276 0.0 0.0 0.00 0.00 0.00 91 1015.7
20260506031605 22 276 0.0 0.0 0.00 0.00 0.00 91 1015.7
20260506031104 23 276 0.0 0.0 0.00 0.00 0.00 91 1015.8
20260506030604 23 276 0.0 0.0 0.00 0.00 0.00 91 1015.7
20260506030105 22 276 0.0 0.0 0.00 0.00 0.00 90 1015.7
20260506025604 22 276 0.0 0.0 0.00 0.00 0.00 90 1015.6
20260506025104 23 276 0.0 0.0 0.00 0.00 0.00 90 1015.6
20260506024104 23 276 0.0 0.0 0.00 0.00 0.00 90 1015.7
20260506023604 23 276 0.0 0.0 0.00 0.00 0.00 90 1015.8
20260506023104 23 276 0.0 0.0 0.00 0.00 0.00 90 1015.8
20260506022605 23 276 0.0 0.0 0.00 0.00 0.00 91 1015.9
20260506022104 23 276 0.0 0.0 0.00 0.00 0.00 91 1015.9
20260506021604 23 276 0.0 0.0 0.00 0.00 0.00 91 1015.9
20260506021105 23 276 0.0 0.0 0.00 0.00 0.00 91 1015.9
20260506020605 23 276 0.0 0.0 0.00 0.00 0.00 91 1016.0
20260506020105 23 276 0.0 0.0 0.00 0.00 0.00 91 1016.0
20260506015105 23 276 0.0 0.0 0.00 0.00 0.00 91 1015.9
20260506014605 23 276 0.0 0.0 0.00 0.00 0.00 90 1015.9
20260506014104 23 276 0.0 0.0 0.00 0.00 0.00 90 1015.9
20260506013605 23 276 0.0 0.0 0.00 0.00 0.00 90 1015.8
20260506012604 23 276 0.0 0.0 0.00 0.00 0.00 90 1015.8
20260506012104 23 276 0.0 0.0 0.00 0.00 0.00 90 1015.8
20260506011605 23 276 0.0 0.0 0.00 0.00 0.00 90 1015.8
20260506010604 23 276 0.0 0.0 0.00 0.00 0.00 90 1015.9
20260506010104 23 276 0.0 0.0 0.00 0.00 0.00 89 1015.9
20260506005604 23 276 0.0 0.0 0.00 0.00 0.00 89 1015.9
20260506004604 24 276 0.0 0.0 0.00 0.00 0.00 89 1015.8
20260506004104 24 276 0.0 0.0 0.00 0.00 0.00 89 1015.8
20260506002604 24 276 0.0 0.0 0.00 0.00 0.00 88 1015.8
20260506002104 25 276 0.0 0.0 0.00 0.00 0.00 88 1015.7
20260506001605 25 276 0.0 0.0 0.00 0.00 0.00 88 1015.7
20260506001104 25 276 0.0 0.0 0.00 0.00 0.00 88 1015.7
20260506000604 25 276 0.0 0.0 0.00 0.00 0.00 87 1015.7
20260506000104 25 276 0.0 0.0 0.00 0.00 0.00 87 1015.6
20260505235605 26 276 0.0 0.0 0.00 0.00 0.00 87 1015.6
20260505235104 26 276 0.0 0.0 0.00 0.00 0.00 86 1015.7
20260505234604 26 276 0.0 0.0 0.00 0.00 0.00 86 1015.6
20260505234105 26 276 0.0 0.0 0.00 0.00 0.00 85 1015.5
20260505233605 27 276 0.0 0.0 0.00 0.00 0.00 85 1015.4
20260505233104 27 276 0.0 0.0 0.00 0.00 0.00 84 1015.4
20260505232105 28 276 0.0 0.0 0.00 0.00 0.00 82 1015.5
20260505231605 28 276 0.0 3.0 0.00 0.00 0.00 82 1015.4
20260505231104 28 276 1.0 3.0 0.00 0.00 0.00 83 1015.4
20260505230604 28 277 0.0 0.0 0.00 0.00 0.00 82 1015.4
20260505225604 28 277 0.0 3.0 0.00 0.00 0.00 82 1015.5
20260505225105 29 277 0.0 3.0 0.00 0.00 0.00 82 1015.4
20260505224604 29 277 0.0 0.0 0.00 0.00 0.00 81 1015.4
20260505224104 29 277 0.0 0.0 0.00 0.00 0.00 80 1015.4
20260505223605 30 277 0.0 0.0 0.00 0.00 0.00 78 1015.4
20260505222604 30 277 2.0 3.0 0.00 0.00 0.00 79 1015.3
20260505222104 30 279 1.0 3.0 0.00 0.00 0.00 79 1015.3
20260505221604 30 277 1.0 3.0 0.00 0.00 0.00 79 1015.4
20260505221104 30 278 0.0 0.0 0.00 0.00 0.00 78 1015.4
20260505220604 31 277 0.0 0.0 0.00 0.00 0.00 78 1015.3
20260505220104 31 277 1.0 3.0 0.00 0.00 0.00 76 1015.4
20260505215604 31 277 1.0 3.0 0.00 0.00 0.00 76 1015.4
20260505215105 32 277 1.0 3.0 0.00 0.00 0.00 77 1015.5
20260505214604 31 277 2.0 5.0 0.00 0.00 0.00 78 1015.5
20260505214104 31 268 1.0 3.0 0.00 0.00 0.00 79 1015.4
20260505213604 31 266 0.0 3.0 0.00 0.00 0.00 79 1015.4
20260505213105 31 264 0.0 3.0 0.00 0.00 0.00 79 1015.5
20260505212604 31 264 0.0 2.0 0.00 0.00 0.00 80 1015.5
20260505212104 31 264 0.0 0.0 0.00 0.00 0.00 80 1015.6
20260505211605 31 265 0.0 0.0 0.00 0.00 0.00 79 1015.5
20260505211104 31 264 0.0 0.0 0.00 0.00 0.00 79 1015.5
20260505210604 31 264 0.0 0.0 0.00 0.00 0.00 79 1015.5
20260505210104 31 264 1.0 3.0 0.00 0.00 0.00 79 1015.5
20260505205604 31 262 2.0 3.0 0.00 0.00 0.00 78 1015.4
20260505205104 32 177 0.0 3.0 0.00 0.00 0.00 77 1015.3
20260505204605 33 158 0.0 3.0 0.00 0.00 0.00 78 1015.3
20260505204104 33 151 3.0 7.0 0.00 0.00 0.00 77 1015.3
20260505203105 32 253 0.0 0.0 0.00 0.00 0.00 76 1015.1
20260505202604 32 254 0.0 0.0 0.00 0.00 0.00 76 1015.1
20260505202104 32 254 0.0 0.0 0.00 0.00 0.00 77 1015.2
20260505201104 32 254 0.0 0.0 0.00 0.00 0.00 76 1015.2
20260505200604 32 254 0.0 0.0 0.00 0.00 0.00 76 1015.2
20260505200104 32 254 0.0 0.0 0.00 0.00 0.00 75 1015.2
20260505195605 32 256 1.0 3.0 0.00 0.00 0.00 75 1015.1
20260505195104 33 253 0.0 0.0 0.00 0.00 0.00 75 1015.1
20260505194604 33 253 0.0 0.0 0.00 0.00 0.00 74 1015.0
20260505194105 33 253 0.0 0.0 0.00 0.00 0.00 73 1015.1
20260505193604 33 253 0.0 0.0 0.00 0.00 0.00 73 1015.0
20260505193104 34 253 0.0 0.0 0.00 0.00 0.00 72 1015.0
20260505192105 34 253 1.0 3.0 0.00 0.00 0.00 70 1015.0
20260505191604 34 226 0.0 3.0 0.00 0.00 0.00 69 1015.0
20260505191104 34 226 4.0 8.0 0.00 0.00 0.00 69 1014.9
20260505190605 34 195 2.0 7.0 0.00 0.00 0.00 69 1014.8
20260505190104 34 288 1.0 5.0 0.00 0.00 0.00 69 1014.8
20260505185605 35 275 0.0 6.0 0.00 0.00 0.00 69 1014.8
20260505185104 35 278 2.0 3.0 0.00 0.00 0.00 68 1014.8
20260505184604 35 233 0.0 3.0 0.00 0.00 0.00 68 1014.7
20260505184105 35 239 3.0 10.0 0.00 0.00 0.00 68 1014.6
20260505183604 35 198 3.0 12.0 0.00 0.00 0.00 68 1014.5
20260505183105 35 221 2.0 7.0 0.00 0.00 0.00 68 1014.5
20260505182104 35 247 2.0 12.0 0.00 0.00 0.00 69 1014.4
20260505181105 36 256 4.0 10.0 0.00 0.00 0.00 68 1014.4
20260505180604 36 207 4.0 12.0 0.00 0.00 0.00 69 1014.4
20260505180104 36 198 2.0 7.0 0.00 0.00 0.00 69 1014.5
20260505175605 36 212 2.0 10.0 0.00 0.00 0.00 68 1014.5
20260505175104 36 240 4.0 10.0 0.00 0.00 0.00 69 1014.5
20260505174604 37 204 1.0 10.0 0.00 0.00 0.00 68 1014.4
20260505174105 37 294 1.0 13.0 0.00 0.00 0.00 68 1014.4
20260505173604 37 239 7.0 14.0 0.00 0.00 0.00 69 1014.4
20260505173104 36 204 2.0 12.0 0.00 0.00 0.00 70 1014.4
20260505172604 36 211 6.0 15.0 0.00 0.00 0.00 70 1014.4
20260505172105 36 214 6.0 16.0 0.00 0.00 0.00 71 1014.4
20260505171604 36 219 6.0 15.0 0.00 0.00 0.00 70 1014.4
20260505171104 37 208 9.0 16.0 0.00 0.00 0.00 68 1014.4
20260505170604 37 230 5.0 13.0 0.00 0.00 0.00 66 1014.3